Weather Roundup
Issued by NWS Chicago, IL

Home | Current Version | Previous Version | Graphics & Text | Print | Product List | Glossary On
Versions: 1 2 3 4 5 6 7 8 9 10 11 12 13 14 15 16 17 18 19 20 21 22 23 24 25 26 27 28 29 30 31 32 33 34 35 36 37 38 39 40 41 42 43 44 45 46 47 48 49 50
000
NZUS59 KLOT 230608
HRRLOT

CHICAGO AREA WEATHER ROUNDUP
NATIONAL WEATHER SERVICE CHICAGO/ROMEOVILLE IL
100 AM CDT MON APR 23 2018

NOTE: "FAIR" INDICATES FEW OR NO CLOUDS BELOW 12,000 FEET WITH NO
SIGNIFICANT WEATHER AND/OR OBSTRUCTIONS TO VISIBILITY.

* THESE STATIONS ARE NOT UNDER NWS QUALITY CONTROL. THEY ALSO MAY NOT
  REPORT WEATHER SUCH AS PRECIPITATION OR FOG.

ILZ005-006-012>014-019>023-230700-
NORTHEAST ILLINOIS

CITY           SKY/WX    TMP DP  RH WIND       PRES   REMARKS
OHARE          MOCLDY    44  29  55 NE7       30.23S
6HR MIN TEMP:  43; 6HR MAX TEMP:  55;

MIDWAY         MOCLDY    46  32  58 E6        30.23F
6HR MIN TEMP:  46; 6HR MAX TEMP:  55;

AURORA           N/A     45  28  51 NE8       30.22F
6HR MIN TEMP:  45; 6HR MAX TEMP:  58;

LANSING*         N/A     40  36  84 NE3       30.23F
JOLIET*          N/A     46  31  58 NE3       30.22S
WAUKEGAN         N/A     41  30  65 NE6       30.24S
6HR MIN TEMP:  41; 6HR MAX TEMP:  51;

DUPAGE AIRPORT   N/A     43  29  57 NE7       30.22F
6HR MIN TEMP:  42; 6HR MAX TEMP:  56;

WHEELING         N/A     45  30  55 NE3       30.26S
6HR MIN TEMP:  45; 6HR MAX TEMP:  55;

KANKAKEE*        N/A     42  30  63 E8        30.20F
MORRIS*          N/A     43  31  63 NE3       30.21S
LEWIS AIRPORT*   N/A     43  31  62 E8        30.22F
NORTHERLY ISL    N/A     41  34  76 NE5         N/A
$$

WIZ051-052-058>065-066-070>072-230700-
SOUTHEAST WISCONSIN

CITY           SKY/WX    TMP DP  RH WIND       PRES   REMARKS
MILWAUKEE        N/A     42  26  53 VRB3      30.27S
6HR MIN TEMP:  41; 6HR MAX TEMP:  49;

KENOSHA*         N/A     38  26  62 N5        30.26R
RACINE*          N/A     40  28  62 N6        30.28R
BURLINGTON       N/A     39  26  58 CALM      30.26R
WAUKESHA         N/A     37  23  56 NE6       30.27S
WEST BEND        N/A     32  28  86 CALM      30.28S
$$

INZ001>003-010>013-019-020-230700-
NORTHWEST INDIANA

CITY           SKY/WX    TMP DP  RH WIND       PRES   REMARKS
GARY*            N/A     38  36  91 CALM      30.23F
6HR MIN TEMP:  38; 6HR MAX TEMP:  47;

MICHIGAN CITY* NOT AVBL
RENSSELAER*    NOT AVBL
VALPARAISO       N/A     45  23  42 E9        30.22F
$$

LMZ740>746-230700-
SOUTHERN LAKE MICHIGAN

STATION/POSITION TIME  SKY/WX   TEMP WIND        PRES    VSBY
                                AIR  DIR/SP/G
                 (UTC)          (F)  (DEG/KT/KT) (MB)    (MI)
HARRISON CRIB    0540            44   80/ 11/ 12   N/A
BURNHAM HARBOR   0600            41   10/  4/  9   N/A
CALUMET HARBOR   0548                 50/  4/  5   N/A
BURNS HARBOR     0540            50  100/  7/ 10 1024.0F
MICHIGAN CITY    0540            50   70/  8/  9   N/A
$$

ABBREVIATIONS USED IN REMARKS
   TC - TEMPERATURE IN CELSIUS
  WCI - WIND CHILL INDEX
   HX - HEAT INDEX
  VSB - VISIBILITY
$$




USA.gov is the U.S. government's official web portal to all federal, state and local government web resources and services.